AUA679 LOWW-EPKK

Flight info

Callsign AUA679
Flight time 0h 36m
Altitude 23000
Route LEDVA DCT NETIR
Aircraft A319/M-SDE3FGHIRWY/LB1

Departure

Time 2026-04-20 05:48
Airport Vienna International Airport (LOWW)

Arrival

Time 2026-04-20 06:25
Airport Kraków John Paul II International Airport (EPKK)
Time Latitude Longitude Altitude Speed Heading
2026-04-20 05:39 48.11747 16.56683 621 ft 0 kts 25°
2026-04-20 05:43 48.11745 16.56682 618 ft 2 kts 25°
2026-04-20 05:43 48.11732 16.56673 624 ft 2 kts 26°
2026-04-20 05:43 48.11717 16.56662 624 ft 2 kts 27°
2026-04-20 05:43 48.11702 16.56651 624 ft 2 kts 28°
2026-04-20 05:44 48.11688 16.56638 621 ft 2 kts 36°
2026-04-20 05:44 48.11676 16.56621 623 ft 2 kts 104°
2026-04-20 05:44 48.11678 16.56611 621 ft 0 kts 114°
2026-04-20 05:44 48.11678 16.56612 621 ft 0 kts 114°
2026-04-20 05:45 48.11678 16.56613 621 ft 1 kts 114°
2026-04-20 05:45 48.11668 16.56645 620 ft 6 kts 116°
2026-04-20 05:45 48.11642 16.56726 615 ft 10 kts 116°
2026-04-20 05:45 48.11610 16.56824 614 ft 11 kts 116°
2026-04-20 05:46 48.11561 16.56913 612 ft 13 kts 158°
2026-04-20 05:46 48.11468 16.56872 616 ft 16 kts 207°
2026-04-20 05:46 48.11366 16.56833 618 ft 16 kts 155°
2026-04-20 05:46 48.11308 16.56970 616 ft 17 kts 116°
2026-04-20 05:47 48.11256 16.57130 618 ft 17 kts 116°
2026-04-20 05:47 48.11191 16.57238 610 ft 14 kts 181°
2026-04-20 05:47 48.11100 16.57175 612 ft 15 kts 207°
2026-04-20 05:47 48.11069 16.57058 610 ft 14 kts 297°
2026-04-20 05:48 48.11127 16.56880 617 ft 38 kts 295°
2026-04-20 05:48 48.11366 16.56148 614 ft 115 kts 296°
2026-04-20 05:48 48.11801 16.54804 660 ft 165 kts 297°
2026-04-20 05:48 48.12258 16.53266 1464 ft 161 kts 289°
2026-04-20 05:49 48.12202 16.51595 2309 ft 167 kts 259°
2026-04-20 05:49 48.11836 16.49942 3089 ft 165 kts 264°
2026-04-20 05:49 48.11608 16.48231 3661 ft 177 kts 268°
2026-04-20 05:49 48.11635 16.46312 4076 ft 195 kts 285°
2026-04-20 05:50 48.11886 16.44182 4586 ft 220 kts 283°
2026-04-20 05:50 48.12150 16.41844 5237 ft 238 kts 283°
2026-04-20 05:50 48.12417 16.39381 6262 ft 241 kts 282°
2026-04-20 05:50 48.12772 16.36923 7227 ft 243 kts 293°
2026-04-20 05:51 48.13732 16.34829 8130 ft 250 kts 317°
2026-04-20 05:51 48.15289 16.33612 9057 ft 261 kts 344°
2026-04-20 05:51 48.17142 16.33715 9984 ft 278 kts 13°
2026-04-20 05:51 48.18966 16.34982 10514 ft 302 kts 22°
2026-04-20 05:52 48.20900 16.36515 10843 ft 326 kts 24°
2026-04-20 05:52 48.22969 16.38203 11105 ft 350 kts 25°
2026-04-20 05:52 48.25179 16.40021 11284 ft 374 kts 25°
2026-04-20 05:52 48.27520 16.41943 11522 ft 392 kts 25°
2026-04-20 05:53 48.29941 16.43924 12110 ft 399 kts 25°
2026-04-20 05:53 48.32398 16.45925 12762 ft 404 kts 25°
2026-04-20 05:53 48.34887 16.47943 13475 ft 408 kts 25°
2026-04-20 05:53 48.37398 16.49970 14119 ft 412 kts 25°
2026-04-20 05:54 48.39937 16.52019 14680 ft 416 kts 25°
2026-04-20 05:54 48.42499 16.54089 15225 ft 420 kts 25°
2026-04-20 05:54 48.45087 16.56188 15762 ft 424 kts 25°
2026-04-20 05:54 48.47698 16.58313 16285 ft 428 kts 25°
2026-04-20 05:55 48.50332 16.60460 16788 ft 432 kts 25°
2026-04-20 05:55 48.52990 16.62624 17287 ft 436 kts 25°
2026-04-20 05:55 48.55674 16.64803 17787 ft 440 kts 25°
2026-04-20 05:55 48.58384 16.67009 18256 ft 444 kts 25°
2026-04-20 05:56 48.61078 16.69211 18672 ft 448 kts 25°
2026-04-20 05:56 48.63827 16.71464 19088 ft 451 kts 25°
2026-04-20 05:56 48.66594 16.73737 19497 ft 454 kts 25°
2026-04-20 05:56 48.69374 16.76037 19866 ft 458 kts 27°
2026-04-20 05:57 48.72038 16.78767 20248 ft 464 kts 36°
2026-04-20 05:57 48.74430 16.82091 20635 ft 470 kts 45°
2026-04-20 05:57 48.76534 16.85914 21006 ft 474 kts 50°
2026-04-20 05:57 48.78585 16.89860 21385 ft 477 kts 50°
2026-04-20 05:58 48.80635 16.93821 21753 ft 479 kts 50°
2026-04-20 05:58 48.82671 16.97760 22107 ft 482 kts 50°
2026-04-20 05:58 48.84745 17.01769 22463 ft 484 kts 50°
2026-04-20 05:58 48.86828 17.05796 22811 ft 486 kts 50°
2026-04-20 05:59 48.88922 17.09847 23023 ft 488 kts 50°
2026-04-20 05:59 48.91016 17.13908 23070 ft 488 kts 50°
2026-04-20 05:59 48.93105 17.17973 23050 ft 488 kts 50°
2026-04-20 05:59 48.95198 17.22050 23054 ft 488 kts 50°
2026-04-20 06:00 48.97284 17.26123 23054 ft 488 kts 50°
2026-04-20 06:00 48.99372 17.30204 23056 ft 488 kts 50°
2026-04-20 06:00 49.01460 17.34284 23058 ft 489 kts 50°
2026-04-20 06:00 49.03549 17.38370 23058 ft 488 kts 50°
2026-04-20 06:01 49.05636 17.42457 23058 ft 488 kts 50°
2026-04-20 06:01 49.07716 17.46542 23055 ft 488 kts 50°
2026-04-20 06:01 49.09796 17.50640 23057 ft 488 kts 50°
2026-04-20 06:01 49.11871 17.54738 23048 ft 488 kts 50°
2026-04-20 06:02 49.13944 17.58840 23040 ft 488 kts 50°
2026-04-20 06:02 49.16016 17.62939 23035 ft 488 kts 50°
2026-04-20 06:02 49.18091 17.67044 23032 ft 488 kts 50°
2026-04-20 06:02 49.20138 17.71097 23030 ft 488 kts 50°
2026-04-20 06:03 49.22214 17.75219 23026 ft 488 kts 51°
2026-04-20 06:03 49.24279 17.79336 23022 ft 488 kts 51°
2026-04-20 06:03 49.26346 17.83462 23037 ft 488 kts 51°
2026-04-20 06:03 49.28412 17.87590 23031 ft 488 kts 51°
2026-04-20 06:04 49.30478 17.91721 23021 ft 488 kts 51°
2026-04-20 06:04 49.32541 17.95850 23019 ft 488 kts 51°
2026-04-20 06:04 49.34605 17.99987 23018 ft 488 kts 51°
2026-04-20 06:04 49.36669 18.04132 23016 ft 488 kts 51°
2026-04-20 06:05 49.38731 18.08276 23019 ft 489 kts 51°
2026-04-20 06:05 49.40794 18.12434 23010 ft 489 kts 51°
2026-04-20 06:05 49.42855 18.16595 23015 ft 488 kts 51°
2026-04-20 06:05 49.44906 18.20742 23034 ft 488 kts 52°
2026-04-20 06:06 49.46958 18.24899 23044 ft 487 kts 52°
2026-04-20 06:06 49.49004 18.29049 23045 ft 487 kts 52°
2026-04-20 06:06 49.51047 18.33202 23045 ft 487 kts 52°
2026-04-20 06:06 49.53088 18.37358 23044 ft 487 kts 52°
2026-04-20 06:07 49.55131 18.41511 23044 ft 486 kts 52°
2026-04-20 06:07 49.57147 18.45606 23040 ft 486 kts 52°
2026-04-20 06:07 49.59188 18.49762 23037 ft 486 kts 52°
2026-04-20 06:07 49.61227 18.53927 23034 ft 486 kts 52°
2026-04-20 06:08 49.63260 18.58100 23031 ft 486 kts 52°
2026-04-20 06:08 49.65287 18.62277 23030 ft 486 kts 52°
2026-04-20 06:08 49.67314 18.66454 23029 ft 486 kts 52°
2026-04-20 06:08 49.69256 18.70725 23024 ft 487 kts 58°
2026-04-20 06:09 49.70834 18.75357 23028 ft 487 kts 65°
2026-04-20 06:09 49.72262 18.80098 23026 ft 487 kts 65°
2026-04-20 06:09 49.73695 18.84845 22610 ft 486 kts 64°
2026-04-20 06:09 49.75121 18.89553 22304 ft 483 kts 64°
2026-04-20 06:10 49.76544 18.94251 22025 ft 481 kts 64°
2026-04-20 06:10 49.77963 18.98939 21759 ft 479 kts 65°
2026-04-20 06:10 49.79370 19.03598 21494 ft 478 kts 65°
2026-04-20 06:10 49.80773 19.08259 21229 ft 476 kts 65°
2026-04-20 06:11 49.82164 19.12898 20962 ft 474 kts 65°
2026-04-20 06:11 49.83549 19.17528 20708 ft 473 kts 65°
2026-04-20 06:11 49.84926 19.22147 19845 ft 471 kts 65°
2026-04-20 06:11 49.86295 19.26751 18908 ft 469 kts 65°
2026-04-20 06:12 49.87644 19.31289 18316 ft 459 kts 65°
2026-04-20 06:12 49.88971 19.35756 17513 ft 452 kts 65°
2026-04-20 06:12 49.90276 19.40162 16737 ft 446 kts 65°
2026-04-20 06:12 49.91564 19.44511 15988 ft 441 kts 65°
2026-04-20 06:13 49.92836 19.48812 15299 ft 435 kts 65°
2026-04-20 06:13 49.94074 19.53007 14619 ft 431 kts 65°
2026-04-20 06:13 49.95313 19.57220 13976 ft 427 kts 65°
2026-04-20 06:13 49.96473 19.61440 13259 ft 424 kts 72°
2026-04-20 06:14 49.97139 19.65871 12622 ft 418 kts 78°
2026-04-20 06:14 49.97728 19.70272 11930 ft 413 kts 77°
2026-04-20 06:14 49.98312 19.74625 11241 ft 409 kts 77°
2026-04-20 06:14 49.98889 19.78908 10599 ft 402 kts 77°
2026-04-20 06:15 49.99461 19.83135 9906 ft 397 kts 76°
2026-04-20 06:15 50.00027 19.87299 9123 ft 391 kts 76°
2026-04-20 06:15 50.00583 19.91392 8562 ft 376 kts 76°
2026-04-20 06:15 50.01096 19.95210 8342 ft 346 kts 76°
2026-04-20 06:16 50.01569 19.98717 8206 ft 318 kts 76°
2026-04-20 06:16 50.02007 20.01958 8074 ft 295 kts 76°
2026-04-20 06:16 50.02412 20.04965 7948 ft 274 kts 77°
2026-04-20 06:16 50.02792 20.07771 7723 ft 259 kts 76°
2026-04-20 06:17 50.03164 20.10491 7213 ft 256 kts 75°
2026-04-20 06:17 50.03547 20.13187 6675 ft 255 kts 72°
2026-04-20 06:17 50.04398 20.15520 6159 ft 245 kts 40°
2026-04-20 06:17 50.05318 20.16483 5894 ft 238 kts 17°
2026-04-20 06:18 50.06908 20.16941 5502 ft 230 kts 354°
2026-04-20 06:18 50.08487 20.16740 5168 ft 226 kts 347°
2026-04-20 06:18 50.09962 20.16022 4842 ft 219 kts 327°
2026-04-20 06:18 50.11112 20.14566 4603 ft 209 kts 307°
2026-04-20 06:19 50.11821 20.12674 4469 ft 198 kts 289°
2026-04-20 06:19 50.12074 20.10613 4336 ft 191 kts 272°
2026-04-20 06:19 50.11910 20.08596 4223 ft 184 kts 261°
2026-04-20 06:19 50.11651 20.06711 4102 ft 173 kts 261°
2026-04-20 06:20 50.11414 20.04960 4020 ft 161 kts 262°
2026-04-20 06:20 50.11184 20.03276 3872 ft 154 kts 263°
2026-04-20 06:20 50.10967 20.01682 3691 ft 150 kts 263°
2026-04-20 06:20 50.10752 20.00107 3496 ft 147 kts 263°
2026-04-20 06:21 50.10540 19.98549 3302 ft 147 kts 264°
2026-04-20 06:21 50.10327 19.96998 3105 ft 147 kts 264°
2026-04-20 06:21 50.10118 19.95486 2908 ft 134 kts 263°
2026-04-20 06:21 50.09930 19.94120 2723 ft 125 kts 264°
2026-04-20 06:22 50.09752 19.92815 2562 ft 121 kts 264°
2026-04-20 06:22 50.09577 19.91541 2394 ft 120 kts 264°
2026-04-20 06:22 50.09402 19.90268 2215 ft 119 kts 263°
2026-04-20 06:22 50.09229 19.89009 2029 ft 119 kts 261°
2026-04-20 06:23 50.09055 19.87745 1858 ft 124 kts 260°
2026-04-20 06:23 50.08877 19.86460 1684 ft 121 kts 259°
2026-04-20 06:23 50.08699 19.85172 1505 ft 120 kts 259°
2026-04-20 06:23 50.08524 19.83905 1346 ft 119 kts 259°
2026-04-20 06:24 50.08351 19.82655 1187 ft 118 kts 260°
2026-04-20 06:24 50.08177 19.81413 1007 ft 126 kts 259°
2026-04-20 06:24 50.07997 19.80102 845 ft 121 kts 259°
2026-04-20 06:24 50.07834 19.78910 802 ft 97 kts 258°
2026-04-20 06:25 50.07712 19.78041 798 ft 70 kts 258°
2026-04-20 06:25 50.07634 19.77483 799 ft 33 kts 258°
2026-04-20 06:25 50.07607 19.77292 801 ft 10 kts 257°
2026-04-20 06:25 50.07590 19.77172 803 ft 14 kts 257°
2026-04-20 06:26 50.07563 19.76992 802 ft 19 kts 256°
2026-04-20 06:26 50.07502 19.76843 802 ft 17 kts 190°
2026-04-20 06:26 50.07380 19.76878 800 ft 13 kts 167°
2026-04-20 06:26 50.07308 19.76950 800 ft 13 kts 97°
2026-04-20 06:27 50.07327 19.77100 800 ft 16 kts 77°
2026-04-20 06:27 50.07353 19.77290 800 ft 20 kts 78°
2026-04-20 06:27 50.07384 19.77515 800 ft 22 kts 78°
2026-04-20 06:27 50.07416 19.77743 800 ft 21 kts 78°
2026-04-20 06:28 50.07445 19.77951 800 ft 18 kts 78°
2026-04-20 06:28 50.07470 19.78133 800 ft 16 kts 77°
2026-04-20 06:28 50.07493 19.78292 800 ft 15 kts 78°
2026-04-20 06:28 50.07514 19.78450 800 ft 15 kts 77°
2026-04-20 06:29 50.07537 19.78615 800 ft 16 kts 78°
2026-04-20 06:29 50.07562 19.78788 800 ft 17 kts 77°
2026-04-20 06:29 50.07586 19.78970 800 ft 18 kts 78°
2026-04-20 06:29 50.07613 19.79160 800 ft 18 kts 77°
2026-04-20 06:30 50.07637 19.79329 800 ft 12 kts 78°
2026-04-20 06:30 50.07653 19.79440 800 ft 6 kts 77°
2026-04-20 06:30 50.07663 19.79511 800 ft 8 kts 78°
2026-04-20 06:30 50.07672 19.79574 800 ft 3 kts 78°
2026-04-20 06:31 50.07677 19.79610 800 ft 4 kts 77°
2026-04-20 06:31 50.07684 19.79664 800 ft 6 kts 78°
2026-04-20 06:31 50.07695 19.79735 800 ft 7 kts 77°
2026-04-20 06:31 50.07706 19.79822 800 ft 9 kts 82°
2026-04-20 06:32 50.07669 19.79881 800 ft 8 kts 166°
2026-04-20 06:32 50.07617 19.79905 800 ft 8 kts 143°
2026-04-20 06:32 50.07613 19.79996 800 ft 9 kts 77°
2026-04-20 06:32 50.07625 19.80081 800 ft 4 kts 78°
2026-04-20 06:33 50.07633 19.80131 800 ft 6 kts 76°
2026-04-20 06:33 50.07637 19.80159 800 ft 2 kts 76°
2026-04-20 06:33 50.07654 19.80177 800 ft 5 kts
2026-04-20 06:33 50.07688 19.80166 800 ft 5 kts 347°
2026-04-20 06:34 50.07694 19.80164 800 ft 0 kts 347°